Regional Weather Roundup
Issued by NWS

Home | Current Version | Previous Version | Text Only | Print | Product List | Glossary On
Versions: 1 2 3 4 5 6 7 8 9 10 11 12 13 14 15 16 17 18 19 20 21 22 23 24 25 26 27 28 29 30 31 32 33 34 35 36 37 38 39 40 41 42 43 44 45 46 47 48 49 50
000
ASCA42 TJSJ 121610
RWRPR
PUERTO RICO/U.S. VIRGIN ISLANDS HOURLY WEATHER ROUNDUP
NATIONAL WEATHER SERVICE SAN JUAN PR
1200 PM AST TUE DEC 12 2017

PRZ001>002-007>008-010-121700-
PUERTO RICO

CITY           SKY/WX    TMP DP  RH WIND       PRES   REMARKS
SAN JUAN LMM   MOSUNNY   82  73  74 NE8       29.94F
AGUADILLA      MOSUNNY   82  70  65 NE7       29.96F
$$

VIZ001>002-121700-
U.S. VIRGIN ISLANDS

CITY           SKY/WX    TMP DP  RH WIND       PRES   REMARKS
CHARLOTTE AMA    N/A    N/A N/A N/A MISG      29.94F
CHRISTIANSTED  MOSUNNY   84  73  70 SE10      29.95F HX  91
$$

HOURLY WEATHER ROUNDUP FOR THE NEWS MEDIA

CITY           SKY/WX    TMP DP  RH WIND       PRES   REMARKS
ORLANDO        SUNNY     66  54  65 SW10      30.02F
NEW YORK       CLOUDY    51  43  74 S20       29.55F
NEWARK         CLOUDY    50  40  68 S9        29.54F
CHICAGO        MOSUNNY   19   6  57 NW21G30   30.09S WCI   3
HARTFORD       RAIN      45  44  97 SE9       29.65F FOG
BOSTON         LGT RAIN  41  37  86 SE15      29.67F
DALLAS         SUNNY     48  28  46 N21G28    30.43R
PHILADELPHIA   CLOUDY    45  34  65 SW10      29.56F
LOS ANGELES    MOSUNNY   62   8  12 VRB5      30.19S
WASHINGTON DC  CLOUDY    40  32  73 CALM      29.58F


USA.gov is the U.S. government's official web portal to all federal, state and local government web resources and services.